Home > Time Zones > World Clock > Weather > France > Lens > Past weeks

Flag for France Weather past 2 weeks in Lens, France

Now
66 °F

Clear.


Feels Like: 66 °F
Forecast: 64 / 86 °F
Wind: 5 mph from East

Location: Lille Airport

Current Time: Aug 3, 2015 at 1:24:21 AM

Latest Report: Aug 3, 2015 at 1:00 AM


Visibility: 10 mi

Pressure: 29.95 "Hg

Humidity: 52%

Dew point: 48 °F

Location of LensLocation

Historic Weather in Lens — Graph

°F

Lens temperature yesterday

Maximum temperature yesterday: 81 °F (at 5:00 PM)
Minimum temperature yesterday: 48 °F (at 5:00 AM)
Average temperature yesterday: 66 °F

Past Weeks' High & Low Weather Summary

 TemperatureHumidityPressure
High81 °F (Aug 2, 5:00 PM)100% (Jul 20, 8:30 AM)30.15 "Hg (Jul 20, 8:30 AM)
Low45 °F (Jul 31, 6:30 AM)23% (Aug 2, 4:30 PM)29.50 "Hg (Jul 25, 3:00 AM)
Average63 °F68%29.91 "Hg
* Reported Midnight between Jul 18 and Jul 19 — Midnight between Aug 2 and Aug 3, Lens, Weather by CustomWeather, © 2015

Note: Actual official high and low records may vary slightly from our data, if they occured in-between our weather recording intervals... More about our weather records

Advertising

Lens weather history for previous 24 hours

 ConditionsComfort  
Time TempWeatherWind HumidityBarometerVisibility
12:00 AM
Mon, Aug 3
70 °FClear.6 mph40%29.95 "Hg10 mi
11:30 PM
Sun, Aug 2
70 °FClear.7 mph40%29.98 "Hg10 mi
11:00 PM72 °FClear.8 mph38%29.98 "Hg10 mi
10:30 PM72 °FSunny.6 mph38%29.98 "Hg10 mi
10:00 PM73 °FSunny.7 mph33%29.98 "Hg10 mi
9:30 PM75 °FSunny.6 mph31%29.98 "Hg10 mi
9:00 PM75 °FSunny.6 mph31%29.98 "Hg10 mi
8:30 PM77 °FSunny.6 mph32%29.98 "Hg10 mi
8:00 PM77 °FSunny.5 mph30%29.98 "Hg10 mi
7:30 PM79 °FPassing clouds.7 mph24%29.98 "HgN/A
7:00 PM81 °FPassing clouds.6 mph28%30.01 "HgN/A
6:30 PM79 °FPassing clouds.6 mph28%30.01 "HgN/A
6:00 PM79 °FPassing clouds.8 mph30%30.01 "HgN/A
5:30 PM79 °FPassing clouds.9 mph26%30.04 "HgN/A
5:00 PM81 °FPassing clouds.6 mph23%30.04 "HgN/A
4:30 PM79 °FPassing clouds.6 mph23%30.04 "HgN/A
4:00 PM79 °FPassing clouds.6 mph24%30.07 "HgN/A
3:30 PM77 °FSunny.3 mph28%30.07 "Hg10 mi
3:00 PM77 °FSunny.3 mph26%30.07 "Hg10 mi
2:30 PM77 °FSunny.3 mph24%30.09 "Hg10 mi
2:00 PM77 °FPassing clouds.5 mph24%30.09 "HgN/A
1:30 PM75 °FPassing clouds.5 mph24%30.09 "HgN/A
1:00 PM73 °FPassing clouds.5 mph25%30.09 "HgN/A
12:30 PM73 °FPassing clouds.5 mph27%30.12 "HgN/A
12:00 PM72 °FSunny.3 mph31%30.12 "Hg10 mi
11:30 AM70 °FPassing clouds.5 mph46%30.12 "HgN/A
11:00 AM68 °FSunny.3 mph53%30.12 "Hg10 mi
10:30 AM66 °FPassing clouds.3 mph56%30.12 "HgN/A
10:00 AM64 °FPassing clouds.3 mph56%30.12 "HgN/A
9:30 AM63 °FPassing clouds.3 mph68%30.12 "HgN/A
9:00 AM59 °FSunny.2 mph72%30.12 "Hg10 mi
8:30 AM55 °FSunny.No wind82%30.12 "Hg10 mi
8:00 AM54 °FSunny.No wind82%30.12 "Hg10 mi
7:30 AM52 °FSunny.No wind88%30.12 "Hg10 mi
7:00 AM48 °FClear.No wind94%30.12 "Hg10 mi
6:30 AM48 °FClear.No wind87%30.09 "Hg10 mi
6:00 AM48 °FClear.No wind87%30.09 "Hg10 mi
5:30 AM48 °FClear.No wind87%30.09 "Hg10 mi
5:00 AM48 °FClear.No wind87%30.09 "Hg10 mi
4:30 AM50 °FClear.1 mph88%30.09 "Hg10 mi
4:00 AM50 °FClear.1 mph88%30.09 "Hg10 mi
3:30 AM52 °FClear.No wind82%30.09 "Hg10 mi
3:00 AM54 °FClear.No wind77%30.09 "Hg10 mi
2:30 AM54 °FClear.2 mph77%30.09 "Hg10 mi
2:00 AM54 °FClear.3 mph72%30.09 "Hg10 mi
1:30 AM55 °FClear.6 mph67%30.09 "Hg10 mi
1:00 AM55 °FClear.3 mph67%30.09 "Hg10 mi
Weather by CustomWeather, © 2015

See weather overviewHow to use our weather pages